date,time,SUV Intensity [MED/Hr],UV Index,Daily total [MED],Since Last [MED]
20/07/2023,23:59:10,-0.000,0.0,9.322,9.322
21/07/2023,00:00:10,0.000,0.0,0.0,-9.322
21/07/2023,00:01:11,0.000,0.0,0.0,0.0
21/07/2023,00:02:10,-0.000,0.0,0.0,0.0
21/07/2023,00:03:11,-0.000,0.0,0.0,0.0
21/07/2023,00:04:11,-0.001,0.0,0.0,0.0
21/07/2023,00:05:09,0.000,0.0,0.0,0.0
21/07/2023,00:06:10,0.000,0.0,0.0,0.0
21/07/2023,00:07:11,0.000,0.0,0.0,0.0
21/07/2023,00:08:10,0.000,0.0,0.0,0.0
21/07/2023,00:09:10,-0.000,0.0,0.0,0.0
21/07/2023,00:10:11,0.000,0.0,0.0,0.0
21/07/2023,00:11:11,0.000,0.0,0.0,0.0
21/07/2023,00:12:10,-0.001,0.0,0.0,0.0
21/07/2023,00:13:11,-0.001,0.0,0.0,0.0
21/07/2023,00:14:11,-0.000,0.0,0.0,0.0
21/07/2023,00:15:11,-0.001,0.0,0.0,0.0
21/07/2023,00:16:11,0.001,0.0,0.0,0.0
21/07/2023,00:17:11,0.000,0.0,0.0,0.0
21/07/2023,00:18:11,0.000,0.0,0.0,0.0
21/07/2023,00:19:11,0.001,0.0,0.0,0.0
21/07/2023,00:20:11,0.001,0.0,0.0,0.0
21/07/2023,00:21:11,0.000,0.0,0.0,0.0
21/07/2023,00:22:10,-0.001,0.0,0.0,0.0
21/07/2023,00:23:10,0.000,0.0,0.0,0.0
21/07/2023,00:24:10,0.000,0.0,0.0,0.0
21/07/2023,00:25:11,0.000,0.0,0.0,0.0
21/07/2023,00:26:10,0.000,0.0,0.0,0.0
21/07/2023,00:27:11,-0.001,0.0,0.0,0.0
21/07/2023,00:28:10,-0.001,0.0,0.0,0.0
21/07/2023,00:29:11,0.000,0.0,0.0,0.0
21/07/2023,00:30:10,0.000,0.0,0.0,0.0
21/07/2023,00:31:11,0.000,0.0,0.0,0.0
21/07/2023,00:32:10,-0.000,0.0,0.0,0.0
21/07/2023,00:33:09,0.001,0.0,0.0,0.0
21/07/2023,00:34:11,-0.001,0.0,0.0,0.0
21/07/2023,00:35:10,-0.001,0.0,0.0,0.0
21/07/2023,00:36:10,-0.000,0.0,0.0,0.0
21/07/2023,00:37:11,0.000,0.0,0.0,0.0
21/07/2023,00:38:11,0.001,0.0,0.0,0.0
21/07/2023,00:39:11,0.000,0.0,0.0,0.0
21/07/2023,00:40:10,-0.001,0.0,0.0,0.0
21/07/2023,00:41:11,0.000,0.0,0.0,0.0
21/07/2023,00:42:11,0.000,0.0,0.0,0.0
21/07/2023,00:43:10,0.000,0.0,0.0,0.0
21/07/2023,00:44:11,0.000,0.0,0.0,0.0
21/07/2023,00:45:11,0.000,0.0,0.0,0.0
21/07/2023,00:46:11,0.000,0.0,0.0,0.0
21/07/2023,00:47:10,0.000,0.0,0.0,0.0
21/07/2023,00:48:11,0.001,0.0,0.0,0.0
21/07/2023,00:49:10,-0.000,0.0,0.0,0.0
21/07/2023,00:50:10,0.000,0.0,0.0,0.0
21/07/2023,00:51:10,0.000,0.0,0.0,0.0
21/07/2023,00:52:10,0.000,0.0,0.0,0.0
21/07/2023,00:53:11,0.001,0.0,0.0,0.0
21/07/2023,00:54:10,0.001,0.0,0.0,0.0
21/07/2023,00:55:11,0.001,0.0,0.0,0.0
21/07/2023,00:56:10,0.000,0.0,0.0,0.0
21/07/2023,00:57:11,0.000,0.0,0.0,0.0
21/07/2023,00:58:11,0.001,0.0,0.0,0.0
21/07/2023,00:59:40,0.002,0.0,0.0,0.0
21/07/2023,01:01:11,0.002,0.0,0.0,0.0
21/07/2023,01:02:11,0.000,0.0,0.0,0.0
21/07/2023,01:03:10,0.001,0.0,0.0,0.0
21/07/2023,01:04:10,0.001,0.0,0.0,0.0
21/07/2023,01:05:11,0.001,0.0,0.0,0.0
21/07/2023,01:06:10,0.001,0.0,0.0,0.0
21/07/2023,01:07:11,0.001,0.0,0.0,0.0
21/07/2023,01:08:10,0.001,0.0,0.0,0.0
21/07/2023,01:09:11,0.000,0.0,0.0,0.0
21/07/2023,01:10:10,0.001,0.0,0.0,0.0
21/07/2023,01:11:11,0.001,0.0,0.0,0.0
21/07/2023,01:12:10,0.000,0.0,0.0,0.0
21/07/2023,01:13:11,0.001,0.0,0.0,0.0
21/07/2023,01:14:11,0.001,0.0,0.0,0.0
21/07/2023,01:15:10,0.001,0.0,0.0,0.0
21/07/2023,01:16:11,0.001,0.0,0.0,0.0
21/07/2023,01:17:10,0.000,0.0,0.0,0.0
21/07/2023,01:18:10,0.001,0.0,0.0,0.0
21/07/2023,01:19:11,0.000,0.0,0.0,0.0
21/07/2023,01:20:10,0.001,0.0,0.0,0.0
21/07/2023,01:21:11,0.001,0.0,0.0,0.0
21/07/2023,01:22:11,0.002,0.0,0.0,0.0
21/07/2023,01:23:11,0.002,0.0,0.0,0.0
21/07/2023,01:24:10,0.001,0.0,0.0,0.0
21/07/2023,01:25:11,0.001,0.0,0.0,0.0
21/07/2023,01:26:11,0.001,0.0,0.0,0.0
21/07/2023,01:27:10,0.001,0.0,0.0,0.0
21/07/2023,01:28:11,-0.000,0.0,0.0,0.0
21/07/2023,01:29:11,0.001,0.0,0.0,0.0
21/07/2023,01:30:10,0.002,0.0,0.0,0.0
21/07/2023,01:31:11,0.000,0.0,0.0,0.0
21/07/2023,01:32:10,0.001,0.0,0.0,0.0
21/07/2023,01:33:11,0.001,0.0,0.0,0.0
21/07/2023,01:34:11,-0.000,0.0,0.0,0.0
21/07/2023,01:35:10,0.001,0.0,0.0,0.0
21/07/2023,01:36:11,0.001,0.0,0.0,0.0
21/07/2023,01:37:11,0.001,0.0,0.0,0.0
21/07/2023,01:38:11,0.001,0.0,0.0,0.0
21/07/2023,01:39:10,0.002,0.0,0.0,0.0
21/07/2023,01:40:10,0.001,0.0,0.0,0.0
21/07/2023,01:41:11,0.001,0.0,0.0,0.0
21/07/2023,01:42:11,0.001,0.0,0.0,0.0
21/07/2023,01:43:10,0.000,0.0,0.0,0.0
21/07/2023,01:44:11,0.002,0.0,0.0,0.0
21/07/2023,01:45:11,-0.000,0.0,0.0,0.0
21/07/2023,01:46:11,0.001,0.0,0.0,0.0
21/07/2023,01:47:10,0.001,0.0,0.0,0.0
21/07/2023,01:48:10,0.000,0.0,0.0,0.0
21/07/2023,01:49:11,0.001,0.0,0.0,0.0
21/07/2023,01:50:11,0.001,0.0,0.0,0.0
21/07/2023,01:51:10,0.001,0.0,0.0,0.0
21/07/2023,01:52:11,0.001,0.0,0.0,0.0
21/07/2023,01:53:11,0.001,0.0,0.0,0.0
21/07/2023,01:54:11,0.002,0.0,0.0,0.0
21/07/2023,01:55:10,0.001,0.0,0.0,0.0
21/07/2023,01:56:10,0.001,0.0,0.0,0.0
21/07/2023,01:57:11,0.002,0.0,0.0,0.0
21/07/2023,01:58:11,0.000,0.0,0.0,0.0
21/07/2023,01:59:11,0.001,0.0,0.0,0.0
21/07/2023,02:00:11,0.002,0.0,0.0,0.0
21/07/2023,02:01:11,0.001,0.0,0.0,0.0
21/07/2023,02:02:10,0.001,0.0,0.0,0.0
21/07/2023,02:03:11,0.001,0.0,0.0,0.0
21/07/2023,02:04:11,0.001,0.0,0.0,0.0
21/07/2023,02:05:10,0.001,0.0,0.0,0.0
21/07/2023,02:06:11,0.000,0.0,0.0,0.0
21/07/2023,02:07:11,0.001,0.0,0.0,0.0
21/07/2023,02:08:10,0.001,0.0,0.0,0.0
21/07/2023,02:09:11,-0.000,0.0,0.0,0.0
21/07/2023,02:10:11,0.001,0.0,0.0,0.0
21/07/2023,02:11:11,0.001,0.0,0.0,0.0
21/07/2023,02:12:10,0.000,0.0,0.0,0.0
21/07/2023,02:13:11,0.001,0.0,0.0,0.0
21/07/2023,02:14:10,0.001,0.0,0.0,0.0
21/07/2023,02:15:12,0.000,0.0,0.0,0.0
21/07/2023,02:16:11,0.000,0.0,0.0,0.0
21/07/2023,02:17:11,0.001,0.0,0.0,0.0
21/07/2023,02:18:10,0.001,0.0,0.0,0.0
21/07/2023,02:19:11,0.001,0.0,0.0,0.0
21/07/2023,02:20:11,0.001,0.0,0.0,0.0
21/07/2023,02:21:10,0.001,0.0,0.0,0.0
21/07/2023,02:22:11,0.001,0.0,0.0,0.0
21/07/2023,02:23:10,0.000,0.0,0.0,0.0
21/07/2023,02:24:11,0.001,0.0,0.0,0.0
21/07/2023,02:25:11,0.002,0.0,0.0,0.0
21/07/2023,02:26:11,0.000,0.0,0.0,0.0
21/07/2023,02:27:11,0.001,0.0,0.0,0.0
21/07/2023,02:28:11,0.001,0.0,0.0,0.0
21/07/2023,02:29:11,0.001,0.0,0.0,0.0
21/07/2023,02:30:10,0.001,0.0,0.0,0.0
21/07/2023,02:31:11,0.001,0.0,0.0,0.0
21/07/2023,02:32:11,0.000,0.0,0.0,0.0
21/07/2023,02:33:10,0.002,0.0,0.0,0.0
21/07/2023,02:34:11,0.001,0.0,0.0,0.0
21/07/2023,02:35:10,0.001,0.0,0.0,0.0
21/07/2023,02:36:11,0.002,0.0,0.0,0.0
21/07/2023,02:37:11,0.000,0.0,0.0,0.0
21/07/2023,02:38:10,0.001,0.0,0.0,0.0
21/07/2023,02:39:11,0.002,0.0,0.0,0.0
21/07/2023,02:40:11,0.001,0.0,0.0,0.0
21/07/2023,02:41:11,0.001,0.0,0.0,0.0
21/07/2023,02:42:10,0.002,0.0,0.0,0.0
21/07/2023,02:43:11,0.001,0.0,0.0,0.0
21/07/2023,02:44:11,0.000,0.0,0.0,0.0
21/07/2023,02:45:10,0.000,0.0,0.0,0.0
21/07/2023,02:46:11,0.000,0.0,0.0,0.0
21/07/2023,02:47:11,0.001,0.0,0.0,0.0
21/07/2023,02:48:11,0.001,0.0,0.0,0.0
21/07/2023,02:49:11,0.001,0.0,0.0,0.0
21/07/2023,02:50:11,0.001,0.0,0.0,0.0
21/07/2023,02:51:10,0.001,0.0,0.0,0.0
21/07/2023,02:52:11,0.001,0.0,0.0,0.0
21/07/2023,02:53:10,0.000,0.0,0.0,0.0
21/07/2023,02:54:11,0.001,0.0,0.0,0.0
21/07/2023,02:55:11,0.001,0.0,0.0,0.0
21/07/2023,02:56:10,0.002,0.0,0.0,0.0
21/07/2023,02:57:11,0.001,0.0,0.0,0.0
21/07/2023,02:58:10,0.001,0.0,0.0,0.0
21/07/2023,02:59:11,0.001,0.0,0.0,0.0
21/07/2023,03:00:11,0.001,0.0,0.0,0.0
21/07/2023,03:01:11,0.001,0.0,0.0,0.0
21/07/2023,03:02:11,0.001,0.0,0.0,0.0
21/07/2023,03:03:10,0.001,0.0,0.0,0.0
21/07/2023,03:04:11,0.001,0.0,0.0,0.0
21/07/2023,03:05:11,0.002,0.0,0.0,0.0
21/07/2023,03:06:41,0.000,0.0,0.0,0.0
21/07/2023,03:08:11,0.001,0.0,0.0,0.0
21/07/2023,03:09:11,0.001,0.0,0.0,0.0
21/07/2023,03:10:11,0.002,0.0,0.0,0.0
21/07/2023,03:11:11,0.001,0.0,0.0,0.0
21/07/2023,03:12:10,0.003,0.0,0.0,0.0
21/07/2023,03:13:11,0.002,0.0,0.0,0.0
21/07/2023,03:14:11,0.001,0.0,0.0,0.0
21/07/2023,03:15:11,0.001,0.0,0.0,0.0
21/07/2023,03:16:11,0.002,0.0,0.0,0.0
21/07/2023,03:17:11,0.001,0.0,0.0,0.0
21/07/2023,03:18:11,0.001,0.0,0.0,0.0
21/07/2023,03:19:10,0.000,0.0,0.0,0.0
21/07/2023,03:20:11,0.001,0.0,0.0,0.0
21/07/2023,03:21:10,0.001,0.0,0.0,0.0
21/07/2023,03:22:11,0.002,0.0,0.0,0.0
21/07/2023,03:23:10,0.001,0.0,0.0,0.0
21/07/2023,03:24:11,0.001,0.0,0.0,0.0
21/07/2023,03:25:10,0.001,0.0,0.0,0.0
21/07/2023,03:26:11,0.001,0.0,0.0,0.0
21/07/2023,03:27:11,0.001,0.0,0.0,0.0
21/07/2023,03:28:10,0.001,0.0,0.0,0.0
21/07/2023,03:29:11,0.000,0.0,0.0,0.0
21/07/2023,03:30:11,-0.000,0.0,0.0,0.0
21/07/2023,03:31:11,0.001,0.0,0.0,0.0
21/07/2023,03:32:10,0.002,0.0,0.0,0.0
21/07/2023,03:33:10,0.001,0.0,0.0,0.0
21/07/2023,03:34:11,0.001,0.0,0.0,0.0
21/07/2023,03:35:10,0.001,0.0,0.0,0.0
21/07/2023,03:36:11,0.001,0.0,0.0,0.0
21/07/2023,03:37:11,0.002,0.0,0.0,0.0
21/07/2023,03:38:11,0.001,0.0,0.0,0.0
21/07/2023,03:39:11,0.001,0.0,0.0,0.0
21/07/2023,03:40:11,0.001,0.0,0.0,0.0
21/07/2023,03:41:11,0.000,0.0,0.0,0.0
21/07/2023,03:42:11,0.001,0.0,0.0,0.0
21/07/2023,03:43:11,0.002,0.0,0.0,0.0
21/07/2023,03:44:11,0.001,0.0,0.0,0.0
21/07/2023,03:45:11,0.001,0.0,0.0,0.0
21/07/2023,03:46:11,0.001,0.0,0.0,0.0
21/07/2023,03:47:11,0.001,0.0,0.0,0.0
21/07/2023,03:48:11,0.002,0.0,0.0,0.0
21/07/2023,03:49:10,0.001,0.0,0.0,0.0
21/07/2023,03:50:10,0.001,0.0,0.0,0.0
21/07/2023,03:51:11,0.001,0.0,0.0,0.0
21/07/2023,03:52:11,0.002,0.0,0.0,0.0
21/07/2023,03:53:11,0.002,0.0,0.0,0.0
21/07/2023,03:54:11,0.002,0.0,0.0,0.0
21/07/2023,03:55:11,0.001,0.0,0.0,0.0
21/07/2023,03:56:11,0.002,0.0,0.0,0.0
21/07/2023,03:57:11,0.002,0.0,0.0,0.0
21/07/2023,03:58:11,0.002,0.0,0.0,0.0
21/07/2023,03:59:11,0.003,0.0,0.0,0.0
21/07/2023,04:00:11,0.003,0.0,0.0,0.0
21/07/2023,04:01:10,0.002,0.0,0.0,0.0
21/07/2023,04:02:11,0.002,0.0,0.0,0.0
21/07/2023,04:03:11,0.001,0.0,0.0,0.0
21/07/2023,04:04:11,0.002,0.0,0.0,0.0
21/07/2023,04:05:10,0.002,0.0,0.0,0.0
21/07/2023,04:06:11,0.003,0.0,0.0,0.0
21/07/2023,04:07:11,0.003,0.0,0.0,0.0
21/07/2023,04:08:11,0.003,0.0,0.0,0.0
21/07/2023,04:09:11,0.003,0.0,0.0,0.0
21/07/2023,04:10:11,0.003,0.0,0.0,0.0
21/07/2023,04:11:11,0.003,0.0,0.0,0.0
21/07/2023,04:12:10,0.003,0.0,0.0,0.0
21/07/2023,04:13:11,0.004,0.0,0.0,0.0
21/07/2023,04:14:11,0.004,0.0,0.0,0.0
21/07/2023,04:15:11,0.003,0.0,0.0,0.0
21/07/2023,04:16:10,0.004,0.0,0.0,0.0
21/07/2023,04:17:11,0.004,0.0,0.0,0.0
21/07/2023,04:18:10,0.004,0.0,0.0,0.0
21/07/2023,04:19:11,0.006,0.0,0.0,0.0
21/07/2023,04:20:10,0.005,0.0,0.0,0.0
21/07/2023,04:21:10,0.005,0.0,0.0,0.0
21/07/2023,04:22:10,0.005,0.0,0.0,0.0
21/07/2023,04:23:11,0.005,0.0,0.0,0.0
21/07/2023,04:24:11,0.005,0.0,0.0,0.0
21/07/2023,04:25:11,0.006,0.0,0.0,0.0
21/07/2023,04:26:11,0.005,0.0,0.0,0.0
21/07/2023,04:27:11,0.006,0.0,0.0,0.0
21/07/2023,04:28:11,0.005,0.0,0.0,0.0
21/07/2023,04:29:10,0.007,0.0,0.0,0.0
21/07/2023,04:30:11,0.007,0.0,0.0,0.0
21/07/2023,04:31:11,0.007,0.0,0.001,0.001
21/07/2023,04:32:10,0.007,0.0,0.001,0.0
21/07/2023,04:33:11,0.008,0.0,0.001,0.0
21/07/2023,04:34:11,0.007,0.0,0.001,0.0
21/07/2023,04:35:10,0.008,0.0,0.001,0.0
21/07/2023,04:36:11,0.009,0.0,0.001,0.0
21/07/2023,04:37:10,0.008,0.0,0.001,0.0
21/07/2023,04:38:10,0.008,0.0,0.001,0.0
21/07/2023,04:39:11,0.010,0.0,0.002,0.001
21/07/2023,04:40:11,0.011,0.0,0.002,0.0
21/07/2023,04:41:10,0.010,0.0,0.002,0.0
21/07/2023,04:42:11,0.009,0.0,0.002,0.0
21/07/2023,04:43:11,0.011,0.0,0.002,0.0
21/07/2023,04:44:11,0.012,0.0,0.002,0.0
21/07/2023,04:45:11,0.012,0.0,0.003,0.001
21/07/2023,04:46:11,0.012,0.0,0.003,0.0
21/07/2023,04:47:11,0.012,0.0,0.003,0.0
21/07/2023,04:48:11,0.013,0.0,0.003,0.0
21/07/2023,04:49:11,0.012,0.0,0.003,0.0
21/07/2023,04:50:11,0.013,0.0,0.004,0.001
21/07/2023,04:51:11,0.014,0.0,0.004,0.0
21/07/2023,04:52:11,0.014,0.0,0.004,0.0
21/07/2023,04:53:11,0.016,0.0,0.004,0.0
21/07/2023,04:54:11,0.015,0.0,0.005,0.001
21/07/2023,04:55:11,0.016,0.0,0.005,0.0
21/07/2023,04:56:11,0.016,0.0,0.005,0.0
21/07/2023,04:57:11,0.016,0.0,0.005,0.0
21/07/2023,04:58:11,0.017,0.0,0.006,0.001
21/07/2023,04:59:11,0.018,0.0,0.006,0.0
21/07/2023,05:00:12,0.018,0.0,0.006,0.0
21/07/2023,05:01:12,0.018,0.0,0.007,0.001
21/07/2023,05:02:11,0.019,0.0,0.007,0.0
21/07/2023,05:03:11,0.020,0.0,0.007,0.0
21/07/2023,05:04:11,0.020,0.0,0.008,0.001
21/07/2023,05:05:11,0.020,0.0,0.008,0.0
21/07/2023,05:06:10,0.021,0.0,0.008,0.0
21/07/2023,05:07:11,0.022,0.0,0.009,0.001
21/07/2023,05:08:11,0.024,0.0,0.009,0.0
21/07/2023,05:09:11,0.023,0.0,0.009,0.0
21/07/2023,05:10:11,0.024,0.0,0.01,0.001
21/07/2023,05:11:11,0.025,0.0,0.01,0.0
21/07/2023,05:12:11,0.026,0.0,0.011,0.001
21/07/2023,05:13:11,0.026,0.0,0.011,0.0
21/07/2023,05:14:12,0.027,0.0,0.012,0.001
21/07/2023,05:15:12,0.028,0.0,0.012,0.0
21/07/2023,05:16:11,0.029,0.0,0.012,0.0
21/07/2023,05:17:11,0.030,0.0,0.013,0.001
21/07/2023,05:18:11,0.030,0.0,0.013,0.0
21/07/2023,05:19:11,0.032,0.0,0.014,0.001
21/07/2023,05:20:12,0.032,0.0,0.015,0.001
21/07/2023,05:21:11,0.034,0.0,0.015,0.0
21/07/2023,05:22:11,0.035,0.0,0.016,0.001
21/07/2023,05:23:11,0.036,0.0,0.016,0.0
21/07/2023,05:24:11,0.037,0.0,0.017,0.001
21/07/2023,05:25:11,0.038,0.0,0.017,0.0
21/07/2023,05:26:11,0.039,0.0,0.018,0.001
21/07/2023,05:27:11,0.040,0.0,0.019,0.001
21/07/2023,05:28:11,0.041,0.0,0.019,0.0
21/07/2023,05:29:11,0.043,0.0,0.02,0.001
21/07/2023,05:30:11,0.044,0.0,0.021,0.001
21/07/2023,05:31:11,0.044,0.0,0.022,0.001
21/07/2023,05:32:11,0.045,0.0,0.022,0.0
21/07/2023,05:33:11,0.048,0.0,0.023,0.001
21/07/2023,05:34:11,0.048,0.0,0.024,0.001
21/07/2023,05:35:10,0.049,0.0,0.025,0.001
21/07/2023,05:36:11,0.051,0.0,0.026,0.001
21/07/2023,05:37:11,0.053,0.0,0.026,0.0
21/07/2023,05:38:11,0.054,0.0,0.027,0.001
21/07/2023,05:39:10,0.054,0.0,0.028,0.001
21/07/2023,05:40:11,0.055,0.0,0.029,0.001
21/07/2023,05:41:11,0.056,0.0,0.03,0.001
21/07/2023,05:42:11,0.058,0.0,0.031,0.001
21/07/2023,05:43:11,0.059,0.0,0.032,0.001
21/07/2023,05:44:11,0.059,0.0,0.033,0.001
21/07/2023,05:45:11,0.061,0.0,0.034,0.001
21/07/2023,05:46:11,0.061,0.0,0.035,0.001
21/07/2023,05:47:11,0.062,0.0,0.036,0.001
21/07/2023,05:48:11,0.063,0.0,0.037,0.001
21/07/2023,05:49:11,0.063,0.0,0.038,0.001
21/07/2023,05:50:11,0.064,0.0,0.039,0.001
21/07/2023,05:51:11,0.066,0.0,0.04,0.001
21/07/2023,05:52:11,0.067,0.0,0.041,0.001
21/07/2023,05:53:11,0.067,0.0,0.042,0.001
21/07/2023,05:54:11,0.069,0.0,0.044,0.002
21/07/2023,05:55:11,0.070,0.0,0.045,0.001
21/07/2023,05:56:11,0.072,0.0,0.046,0.001
21/07/2023,05:57:12,0.072,0.0,0.047,0.001
21/07/2023,05:58:11,0.073,0.0,0.048,0.001
21/07/2023,05:59:11,0.074,0.0,0.049,0.001
21/07/2023,06:00:11,0.075,0.0,0.051,0.002
21/07/2023,06:01:11,0.075,0.0,0.052,0.001
21/07/2023,06:02:11,0.077,0.0,0.053,0.001
21/07/2023,06:03:11,0.077,0.0,0.055,0.002
21/07/2023,06:04:11,0.079,0.0,0.056,0.001
21/07/2023,06:05:11,0.079,0.0,0.057,0.001
21/07/2023,06:06:11,0.081,0.0,0.059,0.002
21/07/2023,06:07:11,0.082,0.0,0.06,0.001
21/07/2023,06:08:11,0.083,0.0,0.061,0.001
21/07/2023,06:09:11,0.085,0.0,0.063,0.002
21/07/2023,06:10:11,0.087,0.0,0.064,0.001
21/07/2023,06:11:11,0.089,0.0,0.066,0.002
21/07/2023,06:12:11,0.091,0.0,0.067,0.001
21/07/2023,06:13:11,0.093,0.0,0.069,0.002
21/07/2023,06:14:11,0.095,0.0,0.07,0.001
21/07/2023,06:15:11,0.098,0.0,0.072,0.002
21/07/2023,06:16:11,0.099,0.0,0.073,0.001
21/07/2023,06:17:12,0.101,0.0,0.075,0.002
21/07/2023,06:18:12,0.103,0.0,0.077,0.002
21/07/2023,06:19:10,0.105,0.0,0.078,0.001
21/07/2023,06:20:40,0.109,0.0,0.081,0.003
21/07/2023,06:22:11,0.112,0.0,0.084,0.003
21/07/2023,06:23:11,0.113,0.0,0.086,0.002
21/07/2023,06:24:11,0.114,0.0,0.088,0.002
21/07/2023,06:25:11,0.115,0.0,0.09,0.002
21/07/2023,06:26:10,0.115,0.0,0.091,0.001
21/07/2023,06:27:11,0.116,0.0,0.093,0.002
21/07/2023,06:28:12,0.115,0.0,0.095,0.002
21/07/2023,06:29:11,0.115,0.0,0.097,0.002
21/07/2023,06:30:11,0.115,0.0,0.099,0.002
21/07/2023,06:31:12,0.115,0.0,0.101,0.002
21/07/2023,06:32:11,0.115,0.0,0.103,0.002
21/07/2023,06:33:12,0.116,0.0,0.105,0.002
21/07/2023,06:34:11,0.118,0.0,0.107,0.002
21/07/2023,06:35:11,0.120,0.0,0.109,0.002
21/07/2023,06:36:11,0.123,0.0,0.111,0.002
21/07/2023,06:37:11,0.127,0.0,0.113,0.002
21/07/2023,06:38:11,0.131,0.0,0.115,0.002
21/07/2023,06:39:11,0.133,0.0,0.117,0.002
21/07/2023,06:40:11,0.138,0.0,0.12,0.003
21/07/2023,06:41:11,0.143,0.0,0.122,0.002
21/07/2023,06:42:11,0.146,0.0,0.124,0.002
21/07/2023,06:43:11,0.151,0.0,0.127,0.003
21/07/2023,06:44:11,0.155,0.0,0.129,0.002
21/07/2023,06:45:11,0.160,0.0,0.132,0.003
21/07/2023,06:46:11,0.165,0.0,0.135,0.003
21/07/2023,06:47:11,0.169,0.0,0.138,0.003
21/07/2023,06:48:10,0.172,0.0,0.14,0.002
21/07/2023,06:49:11,0.177,0.0,0.143,0.003
21/07/2023,06:50:11,0.186,0.0,0.146,0.003
21/07/2023,06:51:11,0.190,0.0,0.149,0.003
21/07/2023,06:52:11,0.187,0.0,0.153,0.004
21/07/2023,06:53:11,0.184,0.0,0.156,0.003
21/07/2023,06:54:11,0.187,0.0,0.159,0.003
21/07/2023,06:55:11,0.186,0.0,0.162,0.003
21/07/2023,06:56:11,0.184,0.0,0.165,0.003
21/07/2023,06:57:11,0.186,0.0,0.168,0.003
21/07/2023,06:58:11,0.189,0.0,0.171,0.003
21/07/2023,06:59:11,0.193,0.0,0.174,0.003
21/07/2023,07:00:11,0.197,0.0,0.178,0.004
21/07/2023,07:01:11,0.202,0.0,0.181,0.003
21/07/2023,07:02:11,0.205,0.0,0.184,0.003
21/07/2023,07:03:11,0.209,0.0,0.188,0.004
21/07/2023,07:04:11,0.214,0.0,0.191,0.003
21/07/2023,07:05:11,0.220,1.0,0.195,0.004
21/07/2023,07:06:11,0.227,1.0,0.199,0.004
21/07/2023,07:07:12,0.233,1.0,0.203,0.004
21/07/2023,07:08:11,0.238,1.0,0.206,0.003
21/07/2023,07:09:11,0.242,1.0,0.21,0.004
21/07/2023,07:10:11,0.248,1.0,0.214,0.004
21/07/2023,07:11:11,0.254,1.0,0.219,0.005
21/07/2023,07:12:11,0.260,1.0,0.223,0.004
21/07/2023,07:13:11,0.264,1.0,0.227,0.004
21/07/2023,07:14:12,0.269,1.0,0.232,0.005
21/07/2023,07:15:11,0.275,1.0,0.236,0.004
21/07/2023,07:16:12,0.278,1.0,0.241,0.005
21/07/2023,07:17:11,0.281,1.0,0.246,0.005
21/07/2023,07:18:11,0.285,1.0,0.25,0.004
21/07/2023,07:19:12,0.288,1.0,0.255,0.005
21/07/2023,07:20:11,0.292,1.0,0.26,0.005
21/07/2023,07:21:12,0.298,1.0,0.265,0.005
21/07/2023,07:22:11,0.303,1.0,0.27,0.005
21/07/2023,07:23:11,0.308,1.0,0.275,0.005
21/07/2023,07:24:11,0.320,1.0,0.28,0.005
21/07/2023,07:25:11,0.330,1.0,0.286,0.006
21/07/2023,07:26:11,0.341,1.0,0.291,0.005
21/07/2023,07:27:11,0.350,1.0,0.297,0.006
21/07/2023,07:28:11,0.359,1.0,0.303,0.006
21/07/2023,07:29:12,0.369,1.0,0.309,0.006
21/07/2023,07:30:11,0.369,1.0,0.315,0.006
21/07/2023,07:31:12,0.384,1.0,0.322,0.007
21/07/2023,07:32:11,0.387,1.0,0.328,0.006
21/07/2023,07:33:11,0.400,1.0,0.334,0.006
21/07/2023,07:34:11,0.405,1.0,0.341,0.007
21/07/2023,07:35:11,0.429,1.0,0.348,0.007
21/07/2023,07:36:11,0.450,1.0,0.356,0.008
21/07/2023,07:37:12,0.456,1.0,0.363,0.007
21/07/2023,07:38:11,0.446,1.0,0.371,0.008
21/07/2023,07:39:11,0.431,1.0,0.378,0.007
21/07/2023,07:40:11,0.441,1.0,0.386,0.008
21/07/2023,07:41:11,0.427,1.0,0.393,0.007
21/07/2023,07:42:12,0.431,1.0,0.4,0.007
21/07/2023,07:43:11,0.425,1.0,0.407,0.007
21/07/2023,07:44:12,0.418,1.0,0.414,0.007
21/07/2023,07:45:11,0.445,1.0,0.421,0.007
21/07/2023,07:46:11,0.420,1.0,0.428,0.007
21/07/2023,07:47:11,0.446,1.0,0.435,0.007
21/07/2023,07:48:12,0.450,1.0,0.443,0.008
21/07/2023,07:49:10,0.428,1.0,0.45,0.007
21/07/2023,07:50:11,0.423,1.0,0.457,0.007
21/07/2023,07:51:11,0.420,1.0,0.464,0.007
21/07/2023,07:52:12,0.418,1.0,0.471,0.007
21/07/2023,07:53:11,0.409,1.0,0.478,0.007
21/07/2023,07:54:11,0.408,1.0,0.485,0.007
21/07/2023,07:55:11,0.413,1.0,0.492,0.007
21/07/2023,07:56:12,0.426,1.0,0.499,0.007
21/07/2023,07:57:11,0.440,1.0,0.506,0.007
21/07/2023,07:58:11,0.461,1.0,0.514,0.008
21/07/2023,07:59:11,0.452,1.0,0.521,0.007
21/07/2023,08:00:12,0.467,1.0,0.529,0.008
21/07/2023,08:01:11,0.477,1.0,0.537,0.008
21/07/2023,08:02:11,0.473,1.0,0.545,0.008
21/07/2023,08:03:12,0.466,1.0,0.553,0.008
21/07/2023,08:04:11,0.465,1.0,0.56,0.007
21/07/2023,08:05:12,0.481,1.0,0.568,0.008
21/07/2023,08:06:11,0.521,1.0,0.576,0.008
21/07/2023,08:07:11,0.547,1.0,0.585,0.009
21/07/2023,08:08:12,0.613,1.0,0.595,0.01
21/07/2023,08:09:11,0.646,1.0,0.605,0.01
21/07/2023,08:10:12,0.655,2.0,0.617,0.012
21/07/2023,08:11:11,0.642,1.0,0.628,0.011
21/07/2023,08:12:11,0.657,2.0,0.638,0.01
21/07/2023,08:13:12,0.683,2.0,0.649,0.011
21/07/2023,08:14:11,0.710,2.0,0.661,0.012
21/07/2023,08:15:12,0.724,2.0,0.673,0.012
21/07/2023,08:16:11,0.731,2.0,0.685,0.012
21/07/2023,08:17:11,0.706,2.0,0.697,0.012
21/07/2023,08:18:11,0.711,2.0,0.709,0.012
21/07/2023,08:19:12,0.693,2.0,0.721,0.012
21/07/2023,08:20:12,0.703,2.0,0.732,0.011
21/07/2023,08:21:11,0.712,2.0,0.744,0.012
21/07/2023,08:22:12,0.614,1.0,0.755,0.011
21/07/2023,08:23:11,0.665,2.0,0.766,0.011
21/07/2023,08:24:11,0.710,2.0,0.777,0.011
21/07/2023,08:25:12,0.756,2.0,0.79,0.013
21/07/2023,08:26:11,0.791,2.0,0.802,0.012
21/07/2023,08:27:11,0.813,2.0,0.815,0.013
21/07/2023,08:28:12,0.823,2.0,0.829,0.014
21/07/2023,08:29:12,0.837,2.0,0.843,0.014
21/07/2023,08:30:11,0.846,2.0,0.857,0.014
21/07/2023,08:31:11,0.857,2.0,0.871,0.014
21/07/2023,08:32:11,0.873,2.0,0.886,0.015
21/07/2023,08:33:11,0.885,2.0,0.9,0.014
21/07/2023,08:34:12,0.890,2.0,0.915,0.015
21/07/2023,08:35:11,0.910,2.0,0.93,0.015
21/07/2023,08:36:12,0.914,2.0,0.946,0.016
21/07/2023,08:37:11,0.923,2.0,0.96,0.014
21/07/2023,08:38:12,0.934,2.0,0.976,0.016
21/07/2023,08:39:12,0.942,2.0,0.992,0.016
21/07/2023,08:40:11,0.927,2.0,1.008,0.016
21/07/2023,08:41:12,0.928,2.0,1.023,0.015
21/07/2023,08:42:11,0.864,2.0,1.038,0.015
21/07/2023,08:43:11,0.793,2.0,1.053,0.015
21/07/2023,08:44:12,0.915,2.0,1.066,0.013
21/07/2023,08:45:11,0.882,2.0,1.081,0.015
21/07/2023,08:46:11,0.961,2.0,1.096,0.015
21/07/2023,08:47:12,0.918,2.0,1.112,0.016
21/07/2023,08:48:11,0.923,2.0,1.127,0.015
21/07/2023,08:49:12,1.003,2.0,1.144,0.017
21/07/2023,08:50:11,0.996,2.0,1.16,0.016
21/07/2023,08:51:11,0.983,2.0,1.176,0.016
21/07/2023,08:52:11,1.019,2.0,1.194,0.018
21/07/2023,08:53:12,0.994,2.0,1.21,0.016
21/07/2023,08:54:12,0.963,2.0,1.226,0.016
21/07/2023,08:55:12,0.818,2.0,1.241,0.015
21/07/2023,08:56:11,0.943,2.0,1.255,0.014
21/07/2023,08:57:11,1.049,2.0,1.272,0.017
21/07/2023,08:58:12,1.058,2.0,1.29,0.018
21/07/2023,08:59:11,1.043,2.0,1.307,0.017
21/07/2023,09:00:10,0.983,2.0,1.324,0.017
21/07/2023,09:01:11,0.901,2.0,1.34,0.016
21/07/2023,09:02:11,0.690,2.0,1.353,0.013
21/07/2023,09:03:11,0.735,2.0,1.364,0.011
21/07/2023,09:04:12,0.782,2.0,1.377,0.013
21/07/2023,09:05:11,0.671,2.0,1.389,0.012
21/07/2023,09:06:11,0.579,1.0,1.399,0.01
21/07/2023,09:07:12,0.555,1.0,1.408,0.009
21/07/2023,09:08:12,0.585,1.0,1.418,0.01
21/07/2023,09:09:11,0.659,2.0,1.429,0.011
21/07/2023,09:10:11,0.673,2.0,1.441,0.012
21/07/2023,09:11:11,0.824,2.0,1.453,0.012
21/07/2023,09:12:11,0.827,2.0,1.468,0.015
21/07/2023,09:13:11,1.125,3.0,1.481,0.013
21/07/2023,09:14:11,0.867,2.0,1.496,0.015
21/07/2023,09:15:12,1.171,3.0,1.516,0.02
21/07/2023,09:16:11,0.853,2.0,1.533,0.017
21/07/2023,09:17:12,1.190,3.0,1.548,0.015
21/07/2023,09:18:11,1.200,3.0,1.566,0.018
21/07/2023,09:19:11,0.786,2.0,1.583,0.017
21/07/2023,09:20:12,0.729,2.0,1.596,0.013
21/07/2023,09:21:11,0.722,2.0,1.608,0.012
21/07/2023,09:22:12,0.808,2.0,1.621,0.013
21/07/2023,09:23:11,0.837,2.0,1.635,0.014
21/07/2023,09:24:12,0.793,2.0,1.649,0.014
21/07/2023,09:25:11,0.784,2.0,1.662,0.013
21/07/2023,09:26:11,0.798,2.0,1.675,0.013
21/07/2023,09:27:11,1.105,3.0,1.691,0.016
21/07/2023,09:28:12,1.073,2.0,1.707,0.016
21/07/2023,09:29:12,0.688,2.0,1.723,0.016
21/07/2023,09:30:11,0.661,2.0,1.734,0.011
21/07/2023,09:31:12,0.697,2.0,1.746,0.012
21/07/2023,09:32:11,0.747,2.0,1.757,0.011
21/07/2023,09:33:12,0.816,2.0,1.771,0.014
21/07/2023,09:34:11,1.071,2.0,1.789,0.018
21/07/2023,09:35:11,1.318,3.0,1.81,0.021
21/07/2023,09:36:11,1.326,3.0,1.832,0.022
21/07/2023,09:37:11,0.925,2.0,1.851,0.019
21/07/2023,09:38:11,1.368,3.0,1.869,0.018
21/07/2023,09:39:11,0.995,2.0,1.891,0.022
21/07/2023,09:40:11,1.269,3.0,1.909,0.018
21/07/2023,09:41:12,1.383,3.0,1.932,0.023
21/07/2023,09:42:11,1.330,3.0,1.954,0.022
21/07/2023,09:43:11,1.342,3.0,1.975,0.021
21/07/2023,09:44:12,1.270,3.0,1.997,0.022
21/07/2023,09:45:11,0.914,2.0,2.016,0.019
21/07/2023,09:46:12,0.861,2.0,2.031,0.015
21/07/2023,09:47:11,0.861,2.0,2.045,0.014
21/07/2023,09:48:11,0.882,2.0,2.059,0.014
21/07/2023,09:49:15,0.833,2.0,2.077,0.018
21/07/2023,09:50:12,0.820,2.0,2.09,0.013
21/07/2023,09:51:12,0.844,2.0,2.104,0.014
21/07/2023,09:52:12,0.890,2.0,2.119,0.015
21/07/2023,09:53:11,1.339,3.0,2.137,0.018
21/07/2023,09:54:12,1.259,3.0,2.159,0.022
21/07/2023,09:55:12,1.326,3.0,2.18,0.021
21/07/2023,09:56:11,1.212,3.0,2.201,0.021
21/07/2023,09:57:12,1.390,3.0,2.224,0.023
21/07/2023,09:58:12,1.334,3.0,2.247,0.023